
SB KEPS @ AMSAT $ORB11111.O Orbital Elements 11111.OSCAR
HR AMSAT ORBITAL ELEMENTS FOR OSCAR SATELLITES FROM WA5QGD FORT WORTH,TX April 21, 2011 Send Subscribe/unsubscribe to KEPS at http://www.amsat.org/mailman/listinfo/keps BID: ORB11111.O TO ALL RADIO AMATEURS BT
Satellite: AO-07 Catalog number: 07530 Epoch time: 11111.65345798 Element set: 59 Inclination: 101.3933 deg RA of node: 120.4251 deg Eccentricity: 0.0012047 Arg of perigee: 031.0721 deg Mean anomaly: 329.1061 deg Mean motion: 12.53582118 rev/day Decay rate: -2.7e-07 rev/day^2 Epoch rev: 66710 Checksum: 250
Satellite: FO-29 Catalog number: 24278 Epoch time: 11111.85318537 Element set: 555 Inclination: 098.5380 deg RA of node: 263.5937 deg Eccentricity: 0.0351251 Arg of perigee: 043.3432 deg Mean anomaly: 319.4781 deg Mean motion: 13.52959964 rev/day Decay rate: 1.0e-07 rev/day^2 Epoch rev: 72484 Checksum: 321
Satellite: SO-33 Catalog number: 25509 Epoch time: 11111.55479851 Element set: 949 Inclination: 031.4312 deg RA of node: 204.6151 deg Eccentricity: 0.0353177 Arg of perigee: 106.3788 deg Mean anomaly: 257.5959 deg Mean motion: 14.28387204 rev/day Decay rate: 2.80e-06 rev/day^2 Epoch rev: 65217 Checksum: 312
Satellite: RS-22 Catalog number: 27939 Epoch time: 11111.82045709 Element set: 187 Inclination: 097.8537 deg RA of node: 328.4943 deg Eccentricity: 0.0013817 Arg of perigee: 159.1980 deg Mean anomaly: 200.9791 deg Mean motion: 14.63559240 rev/day Decay rate: 3.32e-06 rev/day^2 Epoch rev: 40409 Checksum: 317
Satellite: VO-52 Catalog number: 28650 Epoch time: 11110.57177283 Element set: 0774 Inclination: 097.6471 deg RA of node: 156.2653 deg Eccentricity: 0.0026794 Arg of perigee: 353.1577 deg Mean anomaly: 006.9276 deg Mean motion: 14.82010910 rev/day Decay rate: 1.080e-05 rev/day^2 Epoch rev: 32221 Checksum: 295
Satellite: SO-67 Catalog number: 35870 Epoch time: 11111.76019581 Element set: 763 Inclination: 097.2864 deg RA of node: 156.9885 deg Eccentricity: 0.0001673 Arg of perigee: 175.6264 deg Mean anomaly: 277.7028 deg Mean motion: 15.20571927 rev/day Decay rate: 1.907e-05 rev/day^2 Epoch rev: 8836 Checksum: 343
Satellite: HO-68 Catalog number: 36122 Epoch time: 11111.68880745 Element set: 305 Inclination: 100.4212 deg RA of node: 173.3434 deg Eccentricity: 0.0007403 Arg of perigee: 357.0616 deg Mean anomaly: 003.0449 deg Mean motion: 13.16285399 rev/day Decay rate: -4.5e-07 rev/day^2 Epoch rev: 6480 Checksum: 270
/EX SB KEPS @ AMSAT $ORB11111.D Orbital Elements 11111.MICROS
HR AMSAT ORBITAL ELEMENTS FOR THE MICROSATS FROM WA5QGD FORT WORTH,TX April 21, 2011 Send Subscribe/unsubscribe to KEPS at http://www.amsat.org/mailman/listinfo/keps BID: ORB11111.D TO ALL RADIO AMATEURS BT
Satellite: UO-11 Catalog number: 14781 Epoch time: 11110.73791940 Element set: 0532 Inclination: 098.0118 deg RA of node: 167.6137 deg Eccentricity: 0.0008611 Arg of perigee: 331.4440 deg Mean anomaly: 028.6298 deg Mean motion: 14.79943364 rev/day Decay rate: 5.90e-06 rev/day^2 Epoch rev: 45729 Checksum: 306
Satellite: AO-16 Catalog number: 20439 Epoch time: 11110.86300373 Element set: 0175 Inclination: 098.3789 deg RA of node: 062.4127 deg Eccentricity: 0.0010895 Arg of perigee: 338.9558 deg Mean anomaly: 021.1173 deg Mean motion: 14.31911995 rev/day Decay rate: 1.00e-06 rev/day^2 Epoch rev: 10941 Checksum: 286
Satellite: LO-19 Catalog number: 20442 Epoch time: 11110.88162530 Element set: 0092 Inclination: 098.3420 deg RA of node: 067.0059 deg Eccentricity: 0.0011683 Arg of perigee: 331.7670 deg Mean anomaly: 028.2874 deg Mean motion: 14.32138490 rev/day Decay rate: 9.2e-07 rev/day^2 Epoch rev: 10959 Checksum: 281
Satellite: AO-27 Catalog number: 22825 Epoch time: 11111.44870784 Element set: 798 Inclination: 098.5278 deg RA of node: 057.0861 deg Eccentricity: 0.0009394 Arg of perigee: 084.1109 deg Mean anomaly: 276.1129 deg Mean motion: 14.29341020 rev/day Decay rate: 2.27e-06 rev/day^2 Epoch rev: 91608 Checksum: 312
Satellite: IO-26 Catalog number: 22826 Epoch time: 11110.96860966 Element set: 0556 Inclination: 098.5218 deg RA of node: 057.1091 deg Eccentricity: 0.0009885 Arg of perigee: 077.7126 deg Mean anomaly: 282.5163 deg Mean motion: 14.29601542 rev/day Decay rate: 8.8e-07 rev/day^2 Epoch rev: 91613 Checksum: 322
Satellite: GO-32 Catalog number: 25397 Epoch time: 11111.52834509 Element set: 460 Inclination: 098.3240 deg RA of node: 107.1285 deg Eccentricity: 0.0002239 Arg of perigee: 081.1327 deg Mean anomaly: 279.0110 deg Mean motion: 14.23204307 rev/day Decay rate: -6.0e-08 rev/day^2 Epoch rev: 66390 Checksum: 259
Satellite: NO-44 Catalog number: 26931 Epoch time: 11110.53591776 Element set: 0733 Inclination: 067.0500 deg RA of node: 132.0777 deg Eccentricity: 0.0007268 Arg of perigee: 265.9047 deg Mean anomaly: 094.1213 deg Mean motion: 14.29649900 rev/day Decay rate: -6.3e-07 rev/day^2 Epoch rev: 49868 Checksum: 310
Satellite: SO-50 Catalog number: 27607 Epoch time: 11110.57928485 Element set: 0446 Inclination: 064.5579 deg RA of node: 142.7244 deg Eccentricity: 0.0066667 Arg of perigee: 334.1984 deg Mean anomaly: 025.5815 deg Mean motion: 14.71704472 rev/day Decay rate: 5.56e-06 rev/day^2 Epoch rev: 44761 Checksum: 327
Satellite: CO-55 Catalog number: 27844 Epoch time: 11111.55740853 Element set: 92 Inclination: 098.7073 deg RA of node: 121.0805 deg Eccentricity: 0.0010163 Arg of perigee: 007.0696 deg Mean anomaly: 353.0627 deg Mean motion: 14.20795725 rev/day Decay rate: 2.01e-06 rev/day^2 Epoch rev: 40487 Checksum: 282
Satellite: CO-57 Catalog number: 27848 Epoch time: 11110.57642309 Element set: 0041 Inclination: 098.7140 deg RA of node: 119.2842 deg Eccentricity: 0.0010273 Arg of perigee: 014.4704 deg Mean anomaly: 345.6753 deg Mean motion: 14.20576606 rev/day Decay rate: 1.48e-06 rev/day^2 Epoch rev: 40468 Checksum: 290
Satellite: AO-51 Catalog number: 28375 Epoch time: 11110.60721679 Element set: 949 Inclination: 098.0934 deg RA of node: 092.0959 deg Eccentricity: 0.0082789 Arg of perigee: 244.9960 deg Mean anomaly: 114.2596 deg Mean motion: 14.40748426 rev/day Decay rate: 2.03e-06 rev/day^2 Epoch rev: 35777 Checksum: 342
Satellite: CP3 Catalog number: 31129 Epoch time: 11111.72927652 Element set: 849 Inclination: 097.9023 deg RA of node: 139.1945 deg Eccentricity: 0.0101451 Arg of perigee: 357.0282 deg Mean anomaly: 003.0225 deg Mean motion: 14.52446444 rev/day Decay rate: 5.03e-06 rev/day^2 Epoch rev: 21264 Checksum: 268
Satellite: CO-65 Catalog number: 32785 Epoch time: 11110.62004088 Element set: 0970 Inclination: 097.8523 deg RA of node: 175.6019 deg Eccentricity: 0.0015156 Arg of perigee: 008.3069 deg Mean anomaly: 351.8407 deg Mean motion: 14.81937659 rev/day Decay rate: 1.176e-05 rev/day^2 Epoch rev: 16101 Checksum: 305
Satellite: KKS-1 Catalog number: 33493 Epoch time: 11111.70260425 Element set: 508 Inclination: 098.1167 deg RA of node: 239.5208 deg Eccentricity: 0.0019123 Arg of perigee: 221.4526 deg Mean anomaly: 138.5237 deg Mean motion: 14.81557531 rev/day Decay rate: 1.935e-05 rev/day^2 Epoch rev: 12115 Checksum: 272
Satellite: SOHLA-1 Catalog number: 33496 Epoch time: 11111.81109633 Element set: 390 Inclination: 098.0746 deg RA of node: 222.2301 deg Eccentricity: 0.0005733 Arg of perigee: 309.6447 deg Mean anomaly: 050.4245 deg Mean motion: 14.69595997 rev/day Decay rate: 3.43e-06 rev/day^2 Epoch rev: 12020 Checksum: 280
Satellite: TISAT-1 Catalog number: 36799 Epoch time: 11111.70392539 Element set: 783 Inclination: 098.1059 deg RA of node: 179.3857 deg Eccentricity: 0.0016597 Arg of perigee: 099.3015 deg Mean anomaly: 261.0075 deg Mean motion: 14.80466898 rev/day Decay rate: 1.219e-05 rev/day^2 Epoch rev: 4195 Checksum: 339
Satellite: STUDSAT Catalog number: 36801 Epoch time: 11110.76653639 Element set: 0179 Inclination: 098.1086 deg RA of node: 178.2857 deg Eccentricity: 0.0014882 Arg of perigee: 090.6809 deg Mean anomaly: 269.6107 deg Mean motion: 14.80386418 rev/day Decay rate: 3.485e-05 rev/day^2 Epoch rev: 04180 Checksum: 324
Satellite: RAX Catalog number: 37223 Epoch time: 11089.46431449 Element set: 0122 Inclination: 071.9716 deg RA of node: 212.4675 deg Eccentricity: 0.0019443 Arg of perigee: 068.5267 deg Mean anomaly: 291.7923 deg Mean motion: 14.77296529 rev/day Decay rate: 6.60e-06 rev/day^2 Epoch rev: 01926 Checksum: 313
Satellite: OOREOS Catalog number: 37224 Epoch time: 11076.42207246 Element set: 0109 Inclination: 071.9712 deg RA of node: 241.3960 deg Eccentricity: 0.0017800 Arg of perigee: 096.5373 deg Mean anomaly: 263.7815 deg Mean motion: 14.76929834 rev/day Decay rate: 8.68e-06 rev/day^2 Epoch rev: 01732 Checksum: 300
Satellite: FAST1 Catalog number: 37227 Epoch time: 11111.42067481 Element set: 0008 Inclination: 071.9707 deg RA of node: 164.4317 deg Eccentricity: 0.0016208 Arg of perigee: 022.0538 deg Mean anomaly: 338.1278 deg Mean motion: 14.76558372 rev/day Decay rate: 2.80e-06 rev/day^2 Epoch rev: 00094 Checksum: 273
Satellite: NANOSALD Catalog number: 37361 Epoch time: 11110.36481897 Element set: 0151 Inclination: 071.9680 deg RA of node: 165.1694 deg Eccentricity: 0.0030956 Arg of perigee: 307.9349 deg Mean anomaly: 051.8894 deg Mean motion: 14.90115572 rev/day Decay rate: 9.7261e-04 rev/day^2 Epoch rev: 01348 Checksum: 316
Satellite: FAST2 Catalog number: 37380 Epoch time: 11111.42537182 Element set: 0144 Inclination: 071.9743 deg RA of node: 164.4598 deg Eccentricity: 0.0016851 Arg of perigee: 018.8949 deg Mean anomaly: 341.2790 deg Mean motion: 14.76325854 rev/day Decay rate: 2.45e-06 rev/day^2 Epoch rev: 02248 Checksum: 304
/EX SB KEPS @ AMSAT $ORB11111.W Orbital Elements 11111.WEATHER
HR AMSAT ORBITAL ELEMENTS FOR WEATHER SATELLITES FROM WA5QGD FORT WORTH,TX April 21, 2011 Send Subscribe/unsubscribe to KEPS at http://www.amsat.org/mailman/listinfo/keps BID: ORB11111.W TO ALL RADIO AMATEURS BT
